TimeMDT,TemperatureF,Dew PointF,Humidity,Sea Level PressureIn,VisibilityMPH,Wind Direction,Wind SpeedMPH,Gust SpeedMPH,PrecipitationIn,Events,Conditions,WindDirDegrees,DateUTC
12:52 AM,37.0,25.0,62,29.88,10.0,East,5.8,-,N/A,,Clear,80,2012-10-06 06:52:00
1:52 AM,37.9,24.1,57,29.86,10.0,South,3.5,-,N/A,,Partly Cloudy,170,2012-10-06 07:52:00
2:52 AM,39.9,25.0,55,29.85,10.0,North,4.6,-,N/A,,Mostly Cloudy,360,2012-10-06 08:52:00
3:52 AM,37.9,24.1,57,29.86,10.0,NNE,4.6,-,N/A,,Clear,20,2012-10-06 09:52:00
4:52 AM,34.0,23.0,64,29.91,10.0,Calm,Calm,-,N/A,,Clear,0,2012-10-06 10:52:00
5:52 AM,30.9,23.0,72,29.94,10.0,SW,4.6,-,N/A,,Clear,230,2012-10-06 11:52:00
6:52 AM,32.0,24.1,73,29.97,10.0,WSW,3.5,-,N/A,,Clear,250,2012-10-06 12:52:00
7:52 AM,36.0,25.0,64,29.99,10.0,Calm,Calm,-,N/A,,Clear,0,2012-10-06 13:52:00
8:52 AM,48.0,16.0,28,29.95,10.0,ENE,6.9,-,N/A,,Clear,60,2012-10-06 14:52:00
9:52 AM,48.9,10.0,21,29.96,10.0,NE,9.2,-,N/A,,Clear,40,2012-10-06 15:52:00
10:52 AM,57.0,10.9,16,29.94,10.0,NE,12.7,-,N/A,,Clear,40,2012-10-06 16:52:00
11:52 AM,57.9,12.0,16,29.93,10.0,ENE,8.1,-,N/A,,Clear,70,2012-10-06 17:52:00
12:52 PM,60.1,12.9,16,29.90,10.0,Variable,6.9,16.1,N/A,,Clear,0,2012-10-06 18:52:00
1:52 PM,59.0,10.9,15,29.87,10.0,ENE,6.9,-,N/A,,Mostly Cloudy,60,2012-10-06 19:52:00
2:52 PM,61.0,7.0,12,29.82,10.0,ENE,9.2,-,N/A,,Mostly Cloudy,60,2012-10-06 20:52:00
3:52 PM,60.1,5.0,11,29.83,10.0,ENE,12.7,17.3,N/A,,Mostly Cloudy,60,2012-10-06 21:52:00
4:52 PM,53.1,21.9,30,29.88,10.0,SE,16.1,-,N/A,,Clear,130,2012-10-06 22:52:00
5:52 PM,46.0,21.0,37,29.95,10.0,East,13.8,21.9,N/A,,Clear,100,2012-10-06 23:52:00
6:52 PM,37.0,19.9,50,30.02,10.0,ESE,15.0,-,N/A,,Clear,110,2012-10-07 00:52:00
7:52 PM,35.1,21.0,57,30.04,10.0,ESE,11.5,-,N/A,,Clear,120,2012-10-07 01:52:00
8:52 PM,34.0,21.9,61,30.02,10.0,East,4.6,-,N/A,,Clear,100,2012-10-07 02:52:00
9:52 PM,33.1,23.0,66,30.02,10.0,East,5.8,-,N/A,,Clear,100,2012-10-07 03:52:00
10:52 PM,32.0,23.0,69,30.00,10.0,East,9.2,-,N/A,,Clear,100,2012-10-07 04:52:00
11:52 PM,30.9,21.0,67,30.01,10.0,Variable,3.5,-,N/A,,Clear,0,2012-10-07 05:52:00